{"data":{"norad_id":66878,"intl_designator":"2025-283A","name":"STARLINK-35866","alt_names":[],"object_type":"PAYLOAD","status":"ACTIVE","operator":null,"country":"US","launch_date":"2025-12-04","launch_site_code":"AFWTR","launch_vehicle":null,"mission":null,"orbit_class":"UNKNOWN","rcs_meters":null,"size_class":null,"mass_kg":null,"dimensions":null,"purposes":["comms"],"wikipedia_slug":null,"has_3d_model":false,"image_url":null,"decayed_at":null,"tle_current":{"epoch":"2026-05-25T02:17:00.497760Z","epoch_age_seconds":62862,"freshness":"FRESH","line1":"1 66878U 25283A   26145.09514465 -.00006999  00000+0 -22462-3 0  9990","line2":"2 66878  53.1597  29.1694 0001395  82.9789 277.1370 15.30165339 27540","mean_motion":15.30165339,"eccentricity":0.0001395,"inclination_deg":53.1597,"raan_deg":29.1694,"arg_perigee_deg":82.9789,"mean_anomaly_deg":277.137,"bstar":-0.00022462,"rev_number":2754,"period_min":94.107477361961,"perigee_km":474.36250582017,"apogee_km":476.27461992221,"semimajor_km":6853.4555628712,"source":"CELESTRAK","updated_at":"2026-05-25T13:38:21.377733Z"}}}